Back to catalog

SL-12 R/B(2)

AliveGEO
NORAD 17939·ROCKET BODY·🇷🇺 Russia

Launched Oct 3, 1979 from Baikonur Cosmodrome

Loading…

TLE

FreshSource: Space-Track

Epoch: Sep 14, 2026, 14:11 UTC

1 17939U 79087C   26257.59130774 -.00000211  00000-0  00000-0 0  9993
2 17939   5.1196 282.4398 0043362 348.4229  16.9464  1.00499414 48340

Track SL-12 R/B(2) in real time with AllMySat

Download on the App Store